TimeCST,TemperatureF,Dew PointF,Humidity,Sea Level PressureIn,VisibilityMPH,Wind Direction,Wind SpeedMPH,Gust SpeedMPH,PrecipitationIn,Events,Conditions,WindDirDegrees,DateUTC
12:14 AM,14.0,8.6,79,29.67,10.0,Calm,Calm,-,N/A,,Overcast,0,2012-12-18 06:14:00
12:35 AM,14.0,10.4,86,29.66,10.0,SE,3.5,-,N/A,,Overcast,140,2012-12-18 06:35:00
12:54 AM,14.0,10.4,86,29.66,10.0,ESE,3.5,-,N/A,,Overcast,120,2012-12-18 06:54:00
1:14 AM,14.0,10.4,86,29.66,10.0,ESE,3.5,-,N/A,,Overcast,120,2012-12-18 07:14:00
1:34 AM,15.8,10.4,79,29.66,10.0,ESE,4.6,-,N/A,Snow,Light Snow,120,2012-12-18 07:34:00
1:54 AM,15.8,10.4,79,29.66,7.0,ESE,4.6,-,N/A,Snow,Light Snow,120,2012-12-18 07:54:00
2:14 AM,15.8,10.4,79,29.66,4.0,ESE,3.5,-,N/A,Snow,Light Snow,110,2012-12-18 08:14:00
2:34 AM,15.8,10.4,79,29.65,4.0,East,3.5,-,N/A,Snow,Light Snow,100,2012-12-18 08:34:00
2:54 AM,15.8,10.4,79,29.65,5.0,East,3.5,-,N/A,Snow,Light Snow,100,2012-12-18 08:54:00
3:14 AM,15.8,10.4,79,29.65,5.0,East,3.5,-,N/A,Snow,Light Snow,90,2012-12-18 09:14:00
3:34 AM,15.8,10.4,79,29.65,4.0,East,3.5,-,N/A,Snow,Light Snow,100,2012-12-18 09:34:00
3:54 AM,15.8,10.4,79,29.65,5.0,East,3.5,-,N/A,Snow,Light Snow,90,2012-12-18 09:54:00
4:14 AM,15.8,10.4,79,29.65,4.0,East,3.5,-,N/A,Snow,Light Snow,90,2012-12-18 10:14:00
4:34 AM,15.8,10.4,79,29.65,4.0,Calm,Calm,-,N/A,Snow,Light Snow,0,2012-12-18 10:34:00
4:55 AM,15.8,10.4,79,29.65,3.0,East,4.6,-,N/A,Snow,Light Snow,80,2012-12-18 10:55:00
5:14 AM,15.8,12.2,86,29.64,4.0,East,4.6,-,N/A,Snow,Light Snow,80,2012-12-18 11:14:00
5:34 AM,15.8,12.2,86,29.64,4.0,East,4.6,-,N/A,Snow,Light Snow,80,2012-12-18 11:34:00
5:55 AM,15.8,12.2,86,29.64,4.0,East,4.6,-,N/A,Snow,Light Snow,80,2012-12-18 11:55:00
6:14 AM,15.8,12.2,86,29.65,4.0,Calm,Calm,-,N/A,Snow,Light Snow,0,2012-12-18 12:14:00
6:34 AM,17.6,12.2,79,29.65,4.0,Calm,Calm,-,N/A,Snow,Light Snow,0,2012-12-18 12:34:00
6:53 AM,17.6,12.2,79,29.65,4.0,Calm,Calm,-,N/A,Snow,Light Snow,0,2012-12-18 12:53:00
7:14 AM,17.6,12.2,79,29.65,5.0,Calm,Calm,-,N/A,Snow,Light Snow,0,2012-12-18 13:14:00
7:34 AM,17.6,12.2,79,29.65,3.0,Calm,Calm,-,N/A,Snow,Light Snow,0,2012-12-18 13:34:00
7:54 AM,17.6,12.2,79,29.65,7.0,Calm,Calm,-,N/A,Snow,Light Snow,0,2012-12-18 13:54:00
8:14 AM,17.6,12.2,79,29.65,5.0,Calm,Calm,-,N/A,Snow,Light Snow,0,2012-12-18 14:14:00
8:34 AM,17.6,12.2,79,29.65,5.0,Calm,Calm,-,N/A,Snow,Light Snow,0,2012-12-18 14:34:00
8:54 AM,17.6,12.2,79,29.66,7.0,Calm,Calm,-,N/A,Snow,Light Snow,0,2012-12-18 14:54:00
9:14 AM,17.6,12.2,79,29.66,10.0,Calm,Calm,-,N/A,Snow,Light Snow,0,2012-12-18 15:14:00
9:34 AM,17.6,14.0,86,29.66,10.0,Calm,Calm,-,N/A,Snow,Light Snow,0,2012-12-18 15:34:00
9:55 AM,17.6,14.0,86,29.66,10.0,Calm,Calm,-,N/A,Snow,Light Snow,0,2012-12-18 15:55:00
10:14 AM,19.4,14.0,80,29.66,10.0,Calm,Calm,-,N/A,Snow,Light Snow,0,2012-12-18 16:14:00
10:34 AM,17.6,14.0,86,29.66,5.0,Calm,Calm,-,N/A,Snow,Light Snow,0,2012-12-18 16:34:00
10:55 AM,19.4,14.0,80,29.66,7.0,Calm,Calm,-,N/A,Snow,Light Snow,0,2012-12-18 16:55:00
11:14 AM,19.4,15.8,86,29.66,10.0,Calm,Calm,-,N/A,Snow,Light Snow,0,2012-12-18 17:14:00
11:35 AM,19.4,15.8,86,29.66,10.0,Calm,Calm,-,N/A,,Clear,0,2012-12-18 17:35:00
11:54 AM,19.4,15.8,86,29.66,10.0,Calm,Calm,-,N/A,,Clear,0,2012-12-18 17:54:00
12:14 PM,19.4,15.8,86,29.66,10.0,East,3.5,-,N/A,,Clear,90,2012-12-18 18:14:00
12:35 PM,19.4,15.8,86,29.66,10.0,Calm,Calm,-,N/A,,Clear,0,2012-12-18 18:35:00
12:54 PM,19.4,15.8,86,29.66,10.0,Calm,Calm,-,N/A,,Clear,0,2012-12-18 18:54:00
1:14 PM,19.4,15.8,86,29.66,10.0,Calm,Calm,-,N/A,,Clear,0,2012-12-18 19:14:00
1:35 PM,19.4,15.8,86,29.65,10.0,Calm,Calm,-,N/A,,Clear,0,2012-12-18 19:35:00
1:54 PM,21.2,15.8,80,29.65,10.0,Calm,Calm,-,N/A,,Clear,0,2012-12-18 19:54:00
2:14 PM,21.2,15.8,80,29.66,10.0,East,3.5,-,N/A,,Clear,80,2012-12-18 20:14:00
2:35 PM,21.2,15.8,80,29.66,10.0,East,3.5,-,N/A,,Clear,90,2012-12-18 20:35:00
2:54 PM,21.2,15.8,80,29.66,10.0,ENE,4.6,-,N/A,,Clear,70,2012-12-18 20:54:00
3:14 PM,21.2,17.6,86,29.66,10.0,ENE,3.5,-,N/A,,Clear,70,2012-12-18 21:14:00
3:35 PM,21.2,17.6,86,29.67,10.0,ENE,3.5,-,N/A,,Clear,70,2012-12-18 21:35:00
3:54 PM,21.2,17.6,86,29.67,10.0,ENE,3.5,-,N/A,,Clear,70,2012-12-18 21:54:00
4:14 PM,21.2,17.6,86,29.67,10.0,ENE,4.6,-,N/A,,Scattered Clouds,70,2012-12-18 22:14:00
4:35 PM,21.2,17.6,86,29.68,10.0,ENE,4.6,-,N/A,,Mostly Cloudy,70,2012-12-18 22:35:00
4:54 PM,21.2,17.6,86,29.68,10.0,ENE,4.6,-,N/A,,Scattered Clouds,70,2012-12-18 22:54:00
5:14 PM,21.2,15.8,80,29.68,10.0,ENE,5.8,-,N/A,,Scattered Clouds,70,2012-12-18 23:14:00
5:35 PM,21.2,15.8,80,29.68,10.0,ENE,6.9,-,N/A,,Scattered Clouds,70,2012-12-18 23:35:00
5:54 PM,19.4,15.8,86,29.68,10.0,East,5.8,-,N/A,,Scattered Clouds,80,2012-12-18 23:54:00
6:14 PM,21.2,15.8,80,29.69,10.0,East,3.5,-,N/A,,Scattered Clouds,90,2012-12-19 00:14:00
6:35 PM,21.2,15.8,80,29.69,10.0,East,3.5,-,N/A,,Clear,100,2012-12-19 00:35:00
6:54 PM,21.2,15.8,80,29.70,10.0,ESE,3.5,-,N/A,,Clear,110,2012-12-19 00:54:00
7:14 PM,21.2,15.8,80,29.70,10.0,East,4.6,-,N/A,,Clear,90,2012-12-19 01:14:00
7:35 PM,21.2,15.8,80,29.71,10.0,East,3.5,-,N/A,,Scattered Clouds,80,2012-12-19 01:35:00
7:54 PM,21.2,15.8,80,29.71,10.0,ENE,3.5,-,N/A,,Scattered Clouds,70,2012-12-19 01:54:00
8:14 PM,21.2,17.6,86,29.70,10.0,ENE,3.5,-,N/A,,Scattered Clouds,70,2012-12-19 02:14:00
8:35 PM,21.2,17.6,86,29.71,10.0,ENE,3.5,-,N/A,,Scattered Clouds,70,2012-12-19 02:35:00
8:54 PM,21.2,17.6,86,29.71,10.0,ENE,3.5,-,N/A,,Clear,70,2012-12-19 02:54:00
9:14 PM,21.2,17.6,86,29.71,10.0,NE,3.5,-,N/A,,Clear,50,2012-12-19 03:14:00
9:35 PM,21.2,17.6,86,29.70,10.0,ENE,4.6,-,N/A,,Clear,70,2012-12-19 03:35:00
9:54 PM,21.2,17.6,86,29.70,10.0,East,3.5,-,N/A,,Clear,80,2012-12-19 03:54:00
10:14 PM,21.2,17.6,86,29.71,10.0,East,3.5,-,N/A,,Clear,90,2012-12-19 04:14:00
10:35 PM,21.2,17.6,86,29.70,10.0,East,3.5,-,N/A,,Clear,80,2012-12-19 04:35:00
10:54 PM,21.2,17.6,86,29.71,10.0,Calm,Calm,-,N/A,,Clear,0,2012-12-19 04:54:00
11:14 PM,21.2,17.6,86,29.71,10.0,Calm,Calm,-,N/A,,Clear,0,2012-12-19 05:14:00
11:34 PM,21.2,17.6,86,29.71,7.0,East,3.5,-,N/A,Snow,Light Snow,90,2012-12-19 05:34:00
11:55 PM,23.0,17.6,80,29.71,7.0,East,3.5,-,N/A,Snow,Light Snow,100,2012-12-19 05:55:00